Change the Weather History Date:

Wednesday, January 2, 2013

  Actual Average Record
Temperature  
Mean Temperature 40 °F 37 °F  
Max Temperature 44 °F 41 °F 54 °F (1981)
Min Temperature 36 °F 32 °F 8 °F (2009)
Degree Days  
Heating Degree Days 25 28  
Month to date heating degree days 45 56  
Since 1 July heating degree days 3088 2967  
Cooling Degree Days 0    
Month to date cooling degree days 0  
Year to date cooling degree days 0  
Moisture  
Dew Point 38 °F    
Average Humidity 0    
Maximum Humidity 0    
Minimum Humidity 0    
Precipitation  
Precipitation 1.69 in 0.35 in 1.79 in (2001)
Month to date precipitation 2.08 0.71  
Year to date precipitation 2.08 0.71  
Snow  
Snow 0.00 in 0.20 in 5.90 in (1955)
Month to date snowfall 0.0 0.5  
Since 1 July snowfall 11.4 12.2  
Snow Depth 0.00 in    
Sea Level Pressure  
Sea Level Pressure 29.91 in    
Wind  
Wind Speed 14 mph (SE)    
Max Wind Speed 30 mph    
Max Gust Speed 41 mph    
Visibility 7 miles    
Events Rain    
T = Trace of Precipitation, MM = Missing Value Source: NWS Daily Summary

Daily Weather History Graph

Daily Weather History Graph

Search for Another Location

Airport or City:

Trip Planner

Search our weather history database for the weather conditions in past years. The results will help you decide how hot, cold, wet, or windy it might be!

Date:

Astronomy

Jan. 02, 2013 Rise Set
Actual Time 8:10 AM AKST 3:30 PM AKST
Civil Twilight 7:26 AM AKST 4:15 PM AKST
Nautical Twilight 6:38 AM AKST 5:02 PM AKST
Astronomical Twilight 5:54 AM AKST 5:46 PM AKST
Moon 10:13 PM AKST (1/2) 9:58 AM AKST (1/2)
Length of Visible Light 8h 49m
Length of Day
7h 19m
Waning Gibbous, 74% of the Moon is Illuminated
Jan 2
Waning Gibbous
Jan 4
Last Quarter
Jan 11
New
Jan 18
First Quarter
Jan 26
Full

Hourly Weather History & Observations

Time (AKST) Temp. Windchill Dew Point Humidity Pressure Visibility Wind Dir Wind Speed Gust Speed Precip Events Conditions
12:53 AM 43.0 °F 35.1 °F 39.9 °F 89% 29.96 in 7.0 mi SE 17.3 mph 26.5 mph 0.14 in Rain Rain
1:53 AM 43.0 °F 34.5 °F 39.9 °F 89% 29.96 in 6.0 mi SSE 19.6 mph 29.9 mph 0.13 in Rain Light Rain
2:10 AM 42.8 °F 34.5 °F 41.0 °F 93% 29.95 in 4.0 mi SSE 18.4 mph 32.2 mph 0.01 in Rain Light Rain
2:27 AM 42.8 °F 33.8 °F 41.0 °F 93% 29.94 in 3.0 mi SE 21.9 mph 31.1 mph 0.04 in Rain Light Rain
3:22 AM 42.8 °F 34.3 °F 39.2 °F 87% 29.92 in 2.5 mi SE 19.6 mph 33.4 mph 0.04 in   Overcast
3:39 AM 42.8 °F 33.5 °F 41.0 °F 93% 29.91 in 3.0 mi SE 23.0 mph 34.5 mph 0.05 in Rain Light Rain
3:53 AM 43.0 °F 34.5 °F 39.9 °F 89% 29.92 in 5.0 mi SE 19.6 mph 33.4 mph 0.07 in Rain Rain
4:10 AM 42.8 °F 34.0 °F 41.0 °F 93% 29.91 in 4.0 mi SE 20.7 mph 34.5 mph 0.04 in Rain Light Rain
4:19 AM 42.8 °F 34.3 °F 39.2 °F 87% 29.90 in 5.0 mi SE 19.6 mph 33.4 mph 0.05 in Rain Light Rain
4:53 AM 43.0 °F 34.0 °F 39.9 °F 89% 29.90 in 6.0 mi SE 21.9 mph 32.2 mph 0.11 in Rain Rain
5:21 AM 42.8 °F 34.8 °F 39.2 °F 87% 29.89 in 6.0 mi SE 17.3 mph 33.4 mph 0.05 in Rain Rain
5:53 AM 43.0 °F 35.4 °F 39.9 °F 89% 29.90 in 6.0 mi SE 16.1 mph 27.6 mph 0.10 in Rain Rain
6:53 AM 43.0 °F 33.8 °F 39.0 °F 86% 29.89 in 6.0 mi SE 23.0 mph 36.8 mph 0.13 in Rain Rain
7:53 AM 42.1 °F 32.3 °F 37.9 °F 85% 29.88 in 6.0 mi SE 24.2 mph 33.4 mph 0.08 in Rain Rain
8:53 AM 41.0 °F 31.1 °F 37.9 °F 89% 29.88 in 9.0 mi ESE 23.0 mph 38.0 mph 0.07 in Rain Light Rain
9:53 AM 42.1 °F 32.8 °F 37.9 °F 85% 29.88 in 6.0 mi SE 21.9 mph 34.5 mph 0.08 in Rain Light Rain
10:53 AM 42.1 °F 32.8 °F 39.0 °F 89% 29.87 in 6.0 mi SE 21.9 mph 34.5 mph 0.06 in Rain Light Rain
11:53 AM 41.0 °F 33.5 °F 37.9 °F 89% 29.85 in 9.0 mi ESE 13.8 mph 29.9 mph 0.07 in Rain Light Rain
12:27 PM 41.0 °F 31.6 °F 39.2 °F 93% 29.84 in 5.0 mi SE 20.7 mph 32.2 mph 0.04 in Rain Light Rain
12:53 PM 42.1 °F 33.3 °F 39.0 °F 89% 29.83 in 5.0 mi SE 19.6 mph 28.8 mph 0.06 in Rain Light Rain
1:53 PM 42.1 °F 33.9 °F 39.0 °F 89% 29.83 in 7.0 mi SE 17.3 mph 31.1 mph 0.08 in Rain Rain
2:53 PM 42.1 °F 33.1 °F 39.0 °F 89% 29.84 in 4.0 mi SE 20.7 mph 27.6 mph 0.11 in Rain Rain
3:53 PM 42.1 °F 33.9 °F 39.9 °F 92% 29.85 in 7.0 mi SE 17.3 mph 24.2 mph 0.11 in Rain Rain
4:13 PM 42.8 °F 37.5 °F 41.0 °F 93% 29.85 in 6.0 mi SSE 9.2 mph - 0.04 in Rain Rain
4:53 PM 39.0 °F 31.0 °F 37.9 °F 96% 29.88 in 4.0 mi WNW 13.8 mph 19.6 mph 0.15 in Rain Rain
5:53 PM 37.9 °F 35.5 °F 36.0 °F 93% 29.90 in 10.0 mi North 3.5 mph - 0.08 in Rain Light Rain
6:23 PM 37.4 °F 34.9 °F 35.6 °F 93% 29.90 in 10.0 mi NNW 3.5 mph - 0.01 in   Overcast
6:31 PM 37.4 °F 33.8 °F 35.6 °F 93% 29.90 in 10.0 mi NNW 4.6 mph - 0.01 in   Overcast
6:53 PM 37.9 °F 33.5 °F 37.0 °F 97% 29.91 in 10.0 mi NNW 5.8 mph - 0.01 in   Overcast
7:37 PM 37.4 °F 34.9 °F 35.6 °F 93% 29.93 in 10.0 mi NW 3.5 mph - N/A   Overcast
7:53 PM 37.9 °F - 36.0 °F 93% 29.94 in 10.0 mi Calm Calm - N/A   Overcast
8:53 PM 37.0 °F - 36.0 °F 96% 29.95 in 10.0 mi Calm Calm - N/A   Overcast
9:40 PM 37.4 °F 34.9 °F 37.4 °F 100% 29.97 in 10.0 mi NNW 3.5 mph - N/A   Overcast
9:53 PM 37.9 °F 34.4 °F 37.0 °F 97% 29.97 in 10.0 mi NNW 4.6 mph - N/A   Overcast
10:07 PM 37.4 °F 33.8 °F 37.4 °F 100% 29.97 in 10.0 mi NNW 4.6 mph - N/A   Overcast
10:53 PM 37.0 °F - 35.1 °F 93% 29.98 in 10.0 mi Calm Calm - N/A   Mostly Cloudy
11:38 PM 37.4 °F - 37.4 °F 100% 29.99 in 10.0 mi Calm Calm - N/A   Overcast
11:53 PM 37.9 °F - 37.0 °F 97% 29.99 in 10.0 mi Calm Calm - N/A   Overcast